sat.trackr.live / text

‹ back to catalog

STARLINK-35986

NORAD 66853 · 2025-281F

PAYLOAD ACTIVE UNKNOWN

§ Identity

Operator
Country
US
Launch date
2025-12-02
Launch site
AFETR
Launch vehicle
Mass (kg)
RCS (m²)

Purposes: comms

External: N2YO · Heavens-Above · Gunter

§ Orbital elements

Epoch: 2026-09-20T04:30:06.485184Z

Period
94.27 min
Inclination
43.0005°
Eccentricity
0.0001525
Mean motion
15.27584761 rev/d
Perigee alt
482.0 km
Apogee alt
484.1 km
Semi-major
6,861.2 km
B*
3.3584e-4
RAAN
324.8644°
Arg perigee
263.5154°
Mean anomaly
96.5524°
Rev number
4,593

§ Raw data

STARLINK-359861 66853U 25281F   26263.18757506  .00008992  00000+0  33584-3 0  99972 66853  43.0005 324.8644 0001525 263.5154  96.5524 15.27584761 45930

JSON: /api/v1/satellites/66853 · /tle

For live sub-satellite position, see the globe view (requires WebGL).

§ Visibility from observer

Set your observer location to see the next 7 days of passes ≥ 10°. The values pass through the URL so the page stays shareable.

No JS? Fill the form by hand. The geolocation button needs JavaScript.